• In Lithuania
  • List of Countries
  • For 7 days
  • Water Temperature
  • Satellite Maps
  • Weather Map
  • Weather Widgets
  • user-avatar
    Login

    Hourly Weather Mvanza

    Today, 19 January, Friday

    Time Temperature Precipitation Wind Pressure Humidity
    00:00 +23°C° 0 mm 2 mps 660 mmHg 73%
    01:00 +23°C° 0 mm 2 mps 660 mmHg 74%
    02:00 +23°C° 0 mm 2 mps 660 mmHg 74%
    03:00 +23°C° 0.2 mm 2 mps 660 mmHg 75%
    04:00 +23°C° 0.2 mm 2 mps 660 mmHg 76%
    05:00 +21°C° 0.2 mm 2 mps 660 mmHg 77%
    06:00 +23°C° 0.6 mm 1 mps 660 mmHg 75%
    07:00 +24°C° 0.6 mm 1 mps 661 mmHg 73%
    08:00 +24°C° 0.6 mm 1 mps 661 mmHg 70%
    09:00 +26°C° 0.2 mm 1 mps 662 mmHg 62%
    10:00 +28°C° 0.2 mm 1 mps 662 mmHg 54%
    11:00 +30°C° 0.2 mm 1 mps 662 mmHg 46%
    12:00 +29°C° 0 mm 2 mps 662 mmHg 45%
    13:00 +29°C° 0 mm 2 mps 661 mmHg 44%
    14:00 +29°C° 0 mm 3 mps 660 mmHg 42%
    15:00 +29°C° 0 mm 3 mps 660 mmHg 44%
    16:00 +28°C° 0 mm 2 mps 659 mmHg 46%
    17:00 +27°C° 0 mm 2 mps 659 mmHg 48%
    18:00 +26°C° 0 mm 2 mps 659 mmHg 51%
    19:00 +25°C° 0 mm 2 mps 660 mmHg 54%
    20:00 +24°C° 0 mm 2 mps 660 mmHg 57%
    21:00 +24°C° 0 mm 2 mps 660 mmHg 58%
    22:00 +23°C° 0 mm 2 mps 660 mmHg 58%
    23:00 +23°C° 0 mm 2 mps 660 mmHg 58%

    Tomorrow, 20 January, Saturday

    Time Temperature Precipitation Wind Pressure Humidity
    00:00 +23°C° 0 mm 2 mps 660 mmHg 60%
    01:00 +23°C° 0 mm 2 mps 660 mmHg 61%
    02:00 +21°C° 0 mm 2 mps 660 mmHg 63%
    03:00 +21°C° 0 mm 3 mps 660 mmHg 66%
    04:00 +21°C° 0 mm 3 mps 660 mmHg 70%
    05:00 +20°C° 0 mm 3 mps 660 mmHg 74%
    06:00 +21°C° 0 mm 3 mps 661 mmHg 74%
    07:00 +23°C° 0 mm 2 mps 661 mmHg 73%
    08:00 +24°C° 0 mm 2 mps 662 mmHg 73%
    09:00 +25°C° 0.7 mm 2 mps 662 mmHg 67%
    10:00 +26°C° 0.7 mm 2 mps 662 mmHg 61%
    11:00 +28°C° 0.7 mm 1 mps 662 mmHg 55%
    12:00 +28°C° 0.1 mm 1 mps 662 mmHg 52%
    13:00 +29°C° 0.1 mm 1 mps 661 mmHg 49%
    14:00 +30°C° 0.1 mm 1 mps 661 mmHg 46%
    15:00 +29°C° 0 mm 1 mps 660 mmHg 47%
    16:00 +28°C° 0 mm 1 mps 660 mmHg 49%
    17:00 +28°C° 0 mm 2 mps 659 mmHg 50%
    18:00 +27°C° 0 mm 1 mps 660 mmHg 54%
    19:00 +26°C° 0 mm 1 mps 660 mmHg 57%
    20:00 +22°C° 0 mm 0 mps 660 mmHg 60%
    21:00 +24°C° 0 mm 1 mps 661 mmHg 59%
    22:00 +24°C° 0 mm 1 mps 661 mmHg 59%
    23:00 +24°C° 0 mm 1 mps 661 mmHg 59%

    Day after tomorrow, 21 January, Sunday

    Time Temperature Precipitation Wind Pressure Humidity
    00:00 +24°C° 0 mm 2 mps 661 mmHg 62%
    01:00 +24°C° 0 mm 2 mps 660 mmHg 66%
    02:00 +22°C° 0 mm 3 mps 660 mmHg 69%
    03:00 +23°C° 0.1 mm 2 mps 660 mmHg 72%
    04:00 +21°C° 0.1 mm 2 mps 660 mmHg 75%
    05:00 +21°C° 0.1 mm 2 mps 660 mmHg 79%
    06:00 +21°C° 0.2 mm 2 mps 661 mmHg 78%
    07:00 +23°C° 0.2 mm 2 mps 661 mmHg 77%
    08:00 +22°C° 0.2 mm 3 mps 662 mmHg 76%
    09:00 +25°C° 0.4 mm 2 mps 662 mmHg 69%
    10:00 +26°C° 0.4 mm 2 mps 662 mmHg 62%
    11:00 +28°C° 0.4 mm 1 mps 662 mmHg 55%
    12:00 +29°C° 0 mm 1 mps 662 mmHg 52%
    13:00 +29°C° 0 mm 2 mps 661 mmHg 48%
    14:00 +30°C° 0 mm 2 mps 660 mmHg 45%
    15:00 +29°C° 0 mm 2 mps 660 mmHg 48%
    16:00 +28°C° 0 mm 2 mps 660 mmHg 52%
    17:00 +27°C° 0 mm 2 mps 660 mmHg 55%
    18:00 +26°C° 0 mm 2 mps 660 mmHg 58%
    19:00 +25°C° 0 mm 2 mps 660 mmHg 62%
    20:00 +24°C° 0 mm 2 mps 661 mmHg 65%
    21:00 +24°C° 0 mm 2 mps 661 mmHg 68%
    22:00 +23°C° 0 mm 2 mps 661 mmHg 72%
    23:00 +23°C° 0 mm 2 mps 661 mmHg 75%

    22 January, Monday

    Time Temperature Precipitation Wind Pressure Humidity
    00:00 +21°C° 1 mm 2 mps 660 mmHg 76%
    01:00 +21°C° 1 mm 2 mps 660 mmHg 78%
    02:00 +22°C° 1 mm 1 mps 660 mmHg 80%
    03:00 +22°C° 0.5 mm 1 mps 660 mmHg 81%
    04:00 +21°C° 0.5 mm 1 mps 660 mmHg 81%
    05:00 +21°C° 0.5 mm 1 mps 660 mmHg 82%
    06:00 +22°C° 0.7 mm 1 mps 661 mmHg 81%
    07:00 +22°C° 0.7 mm 1 mps 662 mmHg 79%
    08:00 +23°C° 0.7 mm 2 mps 662 mmHg 77%
    09:00 +23°C° 0.4 mm 2 mps 662 mmHg 74%
    10:00 +24°C° 0.4 mm 2 mps 662 mmHg 70%
    11:00 +25°C° 0.4 mm 3 mps 662 mmHg 67%
    12:00 +25°C° 0.2 mm 3 mps 662 mmHg 64%
    13:00 +26°C° 0.2 mm 3 mps 661 mmHg 60%
    14:00 +27°C° 0.2 mm 3 mps 660 mmHg 57%
    15:00 +26°C° 0.3 mm 3 mps 660 mmHg 60%
    16:00 +26°C° 0.3 mm 3 mps 660 mmHg 62%
    17:00 +25°C° 0.3 mm 3 mps 660 mmHg 65%
    18:00 +24°C° 0 mm 2 mps 660 mmHg 67%
    19:00 +24°C° 0 mm 2 mps 661 mmHg 69%
    20:00 +23°C° 0 mm 2 mps 661 mmHg 71%
    21:00 +23°C° 0 mm 1 mps 661 mmHg 72%
    22:00 +23°C° 0 mm 1 mps 661 mmHg 73%
    23:00 +22°C° 0 mm 1 mps 661 mmHg 74%

    23 January, Tuesday

    Time Temperature Precipitation Wind Pressure Humidity
    00:00 +22°C° 0 mm 1 mps 660 mmHg 75%
    01:00 +22°C° 0 mm 1 mps 659 mmHg 76%
    02:00 +22°C° 0 mm 1 mps 659 mmHg 77%
    03:00 +20°C° 0.1 mm 2 mps 659 mmHg 78%
    04:00 +20°C° 0.1 mm 2 mps 659 mmHg 78%
    05:00 +20°C° 0.1 mm 2 mps 660 mmHg 79%
    06:00 +21°C° 0.3 mm 2 mps 660 mmHg 77%
    07:00 +21°C° 0.3 mm 2 mps 661 mmHg 75%
    08:00 +23°C° 0.3 mm 2 mps 662 mmHg 74%
    09:00 +24°C° 0.6 mm 1 mps 662 mmHg 68%
    10:00 +26°C° 0.6 mm 1 mps 662 mmHg 62%
    11:00 +27°C° 0.6 mm 1 mps 662 mmHg 57%
    12:00 +28°C° 0.1 mm 1 mps 661 mmHg 53%
    13:00 +28°C° 0.1 mm 1 mps 660 mmHg 49%
    14:00 +29°C° 0.1 mm 1 mps 660 mmHg 46%
    15:00 +28°C° 0 mm 1 mps 659 mmHg 48%
    16:00 +28°C° 0 mm 1 mps 659 mmHg 51%
    17:00 +27°C° 0 mm 1 mps 659 mmHg 53%
    18:00 +26°C° 0 mm 1 mps 659 mmHg 56%
    19:00 +25°C° 0 mm 1 mps 659 mmHg 58%
    20:00 +24°C° 0 mm 1 mps 659 mmHg 61%
    21:00 +24°C° 0 mm 1 mps 659 mmHg 61%
    22:00 +23°C° 0 mm 1 mps 660 mmHg 62%
    23:00 +23°C° 0 mm 1 mps 660 mmHg 62%

    24 January, Wednesday

    Time Temperature Precipitation Wind Pressure Humidity
    00:00 +23°C° 0 mm 2 mps 659 mmHg 64%
    01:00 +23°C° 0 mm 2 mps 659 mmHg 66%
    02:00 +23°C° 0 mm 2 mps 658 mmHg 68%
    03:00 +21°C° 0 mm 2 mps 659 mmHg 71%
    04:00 +21°C° 0 mm 2 mps 659 mmHg 73%
    05:00 +21°C° 0 mm 3 mps 659 mmHg 76%
    06:00 +22°C° 0.2 mm 3 mps 660 mmHg 75%
    07:00 +22°C° 0.2 mm 3 mps 660 mmHg 74%
    08:00 +24°C° 0.2 mm 3 mps 661 mmHg 73%
    09:00 +25°C° 1 mm 2 mps 661 mmHg 68%
    10:00 +26°C° 1 mm 2 mps 661 mmHg 63%
    11:00 +28°C° 1 mm 1 mps 661 mmHg 58%
    12:00 +28°C° 0.3 mm 1 mps 660 mmHg 55%
    13:00 +29°C° 0.3 mm 1 mps 660 mmHg 52%
    14:00 +29°C° 0.3 mm 1 mps 659 mmHg 49%
    15:00 +29°C° 0.1 mm 1 mps 659 mmHg 52%
    16:00 +28°C° 0.1 mm 1 mps 659 mmHg 54%
    17:00 +27°C° 0.1 mm 1 mps 659 mmHg 57%
    18:00 +26°C° 0 mm 2 mps 659 mmHg 62%
    19:00 +25°C° 0 mm 2 mps 659 mmHg 67%
    20:00 +24°C° 0 mm 2 mps 659 mmHg 73%
    21:00 +23°C° 0 mm 2 mps 659 mmHg 74%
    22:00 +22°C° 0 mm 3 mps 659 mmHg 76%
    23:00 +22°C° 0 mm 3 mps 659 mmHg 78%
    Show more